Location: Beetenbrück
(52.8113°N, 9.5946°E)
Time: 22:42:22
(UTC+00:00)

Cosmos 2112 Rocket - Pass Details

Date: 14 April 2026
Orbit: 753 x 782 km, 74.0° (Epoch: 12 May)

Event Time Altitude Azimuth Distance (km) Brightness Sun altitude
Rises 19:17:28 0° 332° (NNW) 3,240 8.3 -8.9°
Reaches altitude 10° 19:19:52 10° 331° (NNW) 2,305 7.5 -9.2°
Maximum altitude 19:25:03 69° 249° (WSW) 812 4.3 -9.9°
Drops below altitude 10° 19:30:10 10° 167° (SSE) 2,275 6.0 -10.6°
Enters shadow 19:31:22 - 165° (SSE) 2,741 6.4 -10.7°
